HELLAS-SAT 4 & SGS-1

Last updated on Fri Dec 19 2025 00:02:52 GMT+0000 (Coordinated Universal Time)

1 44034U 19007A 25351.91962164 .00000177 00000+0 00000+0 0 9999 2 44034 0.0675 133.5056 0004622 40.9299 282.4599 1.00271723 25554
UTC large
Height (km)
Speed (km/s)
/
Latitude / Longitude
Inclination (degrees)
Orbital Period (minutes)
Azimuth
Elevation
Range (km)
Doppler Factor

Next 0 passes for location: London (51.5072 / 0.1276)

Sorry there are no passes over London.